STARLINK-11698, 64325

Orbit data source: Space-Track

STARLINK-11698, 64325 is a payload satellite owned by SpaceX/Seattle (US) in LEO that was launched on Tue, 10 Jun 2025 UTC via an FALCON 9 launch vehicle from the Air Force Eastern Test Range (AFETR). Payload-class satellites include a variety of spacecraft equipped with specific instruments for various scientific and technological missions. These include communications satellites like Starlink; space stations such as the ISS; scientific satellites like the Hubble; Earth observation satellites from companies like Planet Labs, Umbra, and HawkEye 360; GPS; miniature CubeSats for education and research; and military/defense satellites.

Loading next visibility...
Identifier
64325, 2025-124J
Orbit
LEO
Last TLE update
16 hours ago
Origin
Manufacturer
SpaceX/Seattle
Mission
Operational spacecraft
Bus & Motor
STARLINK V2M, Unknown motor
Mass
730 kg wet, ~700 kg dry
Launch date (UTC)
2025-06-10 (3 weeks ago)
Launch vehicle
FALCON 9
Launch site
Air Force Eastern Test Range (AFETR)
Object type
Payload
Rocket body
Debris
Shape & HBR
Unknown
Radar Cross Section
Large (>1 m²)

Expand to show TLE details & history

TLE from 16 hours ago
0 STARLINK-11698
1 64325U 25124J   25181.91668981 -.00092330  00000-0 -53231-3 0  9995
2 64325  43.0012 107.2437 0001675 262.0939  54.9037 15.77903065  4359
Epoch: 2025-06-30T22:00Z
TLE epoch observation values (Epoch: 2025-06-30T22:00:01.999Z)
Latitude
-27.88786°
Longitude
-176.33678°
Altitude
342.928 km
Speed
7.704 km/s
True Right ascension
04h 51m 33s
True Declination
-27° 44' 14"
Sunlit
Object was in daylight at epoch
Visualization orbit readout
Latitude
25.34987°
Longitude
-115.58657°
Altitude
337.373 km
Speed
7.71 km/s
Apparent Right ascension
10h 47m 32s
Apparent Declination
-7° 24' 48"
Sunlit
Object is in daylight
Visualization observer readout
Local Sidereal Time
01:11:12
Azimuth
54.406° ENE
Elevation
-44.328°
Doppler factor
1
Orbital elements
Apogee altitude
339.495 km
Perigee altitude
337.245 km
Semi-major axis
6,716.507 km
Eccentricity
0.00017
Inclination
43.0012°
RAAN
107.2437°
Arg. of periapsis
262.0939°
True anomaly
Unknown
Mean anomaly
54.9037°
Eccentric anomaly
Unknown
Mean motion
3.94301 °/min
Orbital period
91.3 mins
BSTAR
-0.00053231
Loading maneuver chart data...
Loading SW <> Apogee altitude chart data...
Loading historical data...
Loading historical data...
Loading historical data...
Loading historical data...
Loading historical data...
Loading historical data...
Loading historical data...

STARLINK-11698 Visibility forecast

Observer location: undefined°, undefined°

Span
Click to sort rows by Start time (UTC) header in descending order
Start Az.
Max El. time (UTC)
Max El. Az.
Max El.
End time (UTC)
End Az.
5 mins2025-07-01 22:43:14.641Z232.998° WSW2025-07-01 22:45:14.641Z193.755° SSW36.014°2025-07-01 22:48:14.641Z78.692° E
|